This is the latest recevied weather packets stored in our database for station/object KD5UMO-1. If no packets are shown the sender has not sent any weather packets the latest 10 day(s).
| Time | Temp. | Humidity | Pressure | Rain* | Wind** | Luminosity | Snow |
|---|---|---|---|---|---|---|---|
| 1777662986 | 17.78° C | 53% | 1015.6 hPa | 0 mm | - | 293 W/m² | - |
| 1777662683 | 17.78° C | 53% | 1015.9 hPa | 0 mm | - | 278 W/m² | - |
| 1777662379 | 17.78° C | 52% | 1016.2 hPa | 0 mm | - | 298 W/m² | - |
| 1777662074 | 17.78° C | 51% | 1016 hPa | 0 mm | - | 284 W/m² | - |
| 1777661771 | 17.78° C | 50% | 1016.1 hPa | 0 mm | - | 359 W/m² | - |
| 1777661466 | 17.78° C | 50% | 1015.7 hPa | 0 mm | - | 486 W/m² | - |
| 1777661163 | 17.78° C | 53% | 1015.8 hPa | 0 mm | - | 381 W/m² | - |
| 1777660858 | 17.78° C | 51% | 1015.9 hPa | 0 mm | - | 422 W/m² | - |
| 1777660555 | 17.78° C | 52% | 1016.2 hPa | 0 mm | - | 390 W/m² | - |
| 1777660251 | 18.33° C | 53% | 1016.5 hPa | 0 mm | - | 368 W/m² | - |
| 1777659948 | 18.33° C | 53% | 1016.5 hPa | 0 mm | - | 487 W/m² | - |
| 1777659645 | 18.33° C | 52% | 1016.5 hPa | 0 mm | - | 547 W/m² | - |
| 1777659342 | 18.33° C | 55% | 1016.4 hPa | 0 mm | - | 584 W/m² | - |
| 1777659039 | 18.33° C | 54% | 1016.3 hPa | 0 mm | - | 468 W/m² | - |
| 1777658737 | 18.89° C | 55% | 1016.5 hPa | 0 mm | - | 829 W/m² | - |
| 1777658432 | 18.89° C | 55% | 1016.7 hPa | 0 mm | - | 716 W/m² | - |
| 1777658129 | 18.33° C | 54% | 1016.9 hPa | 0 mm | - | 916 W/m² | - |
| 1777657826 | 18.89° C | 53% | 1017.1 hPa | 0 mm | - | 570 W/m² | - |
| 1777657523 | 18.33° C | 55% | 1016.6 hPa | 0 mm | - | 780 W/m² | - |
| 1777657221 | 18.33° C | 55% | 1017 hPa | 0 mm | - | 593 W/m² | - |
| 1777656918 | 18.33° C | 57% | 1017 hPa | 0 mm | - | 788 W/m² | - |
| 1777656615 | 17.78° C | 58% | 1017.1 hPa | 0 mm | - | 818 W/m² | - |
| 1777656310 | 17.78° C | 56% | 1017.5 hPa | 0 mm | - | 318 W/m² | - |
| 1777656006 | 17.78° C | 56% | 1017.3 hPa | 0 mm | - | 413 W/m² | - |
| 1777655702 | 17.22° C | 59% | 1017.6 hPa | 0 mm | - | 822 W/m² | - |
* Rain latest hour (hover to see other rain measurements)
** Current wind speed in m/s (hover to see current wind gust speed)